Temperature
1 1 1 1 1 1 1 1 1 2 2 2 2 2 2 2 2 2 2 2 2 2 2 2 2 2 2 2 2 2 1 1 1 1 1 1 1 1 1 1 1 1 1
1 1 1 1 1 0 0 1 1 1 1 1 1 1 2 2 2 2 2 2 2 2 1 1 1 1 1 1 1 1 1 1 1 1 0 1 1 1 0 0 1 1 1
-0 -0 -0 0 0 0 0 0 0 1 1 1 1 1 1 1 1 1 1 1 1 1 1 1 1 1 1 1 1 1 0 0 0 -0 -0 -0 -0 -0 -0 -0 -0 -0 -0
-1 -1 -1 -1 -0 -0 -0 -0 -0 0 0 0 0 0 0 0 0 0 0 0 0 0 0 0 0 0 0 0 0 0 -0 -0 -1 -1 -1 -1 -1 -1 -1 -1 -1 -1 -1
-1 -1 -1 -1 -1 -1 -1 -1 -1 -1 -0 -0 -0 -0 -0 -0 -0 -0 -0 -0 -0 -0 -0 -0 -0 -0 -0 -0 -1 -1 -1 -1 -1 -1 -1 -1 -1 -2 -2 -2 -2 -2 -2
-2 -2 -2 -2 -2 -2 -1 -1 -1 -1 -1 -1 -1 -1 -1 -1 -1 -1 -1 -1 -1 -1 -1 -1 -1 -1 -1 -1 -1 -1 -1 -1 -2 -2 -2 -2 -1 -2 -2 -2 -2 -3 -3
-2 -2 -2 -2 -2 -2 -2 -2 -2 -2 -2 -2 -2 -2 -1 -1 -1 -1 -2 -2 -2 -2 -2 -1 -1 -1 -1 -1 -1 -2 -2 -2 -2 -2 -2 -2 -2 -2 -2 -3 -3 -3 -3
-3 -3 -3 -3 -3 -3 -3 -3 -2 -2 -2 -2 -2 -2 -2 -2 -2 -2 -2 -2 -2 -2 -2 -2 -2 -2 -2 -2 -2 -2 -2 -2 -2 -2 -2 -2 -2 -2 -3 -3 -3 -3 -4
-4 -4 -4 -3 -3 -3 -3 -3 -3 -3 -3 -3 -3 -3 -3 -3 -3 -3 -3 -3 -3 -3 -3 -3 -3 -3 -3 -3 -3 -3 -3 -3 -3 -3 -3 -3 -3 -3 -3 -4 -4 -4 -4
-4 -4 -4 -4 -4 -4 -4 -4 -4 -4 -4 -4 -4 -4 -4 -4 -4 -3 -3 -3 -3 -3 -3 -3 -3 -3 -3 -3 -4 -4 -4 -3 -3 -3 -4 -4 -4 -4 -4 -4 -4 -4 -4
-5 -5 -5 -5 -5 -5 -5 -5 -5 -5 -5 -5 -4 -4 -4 -4 -4 -4 -4 -4 -4 -4 -4 -4 -4 -4 -4 -4 -4 -4 -4 -4 -4 -4 -4 -4 -4 -5 -5 -5 -5 -5 -5
-6 -5 -5 -5 -5 -5 -5 -5 -5 -5 -5 -5 -5 -5 -5 -5 -5 -5 -5 -5 -5 -5 -5 -4 -4 -4 -4 -5 -5 -5 -5 -5 -5 -5 -5 -5 -5 -5 -5 -5 -5 -5 -5
-6 -6 -6 -6 -6 -6 -6 -6 -6 -6 -6 -6 -6 -6 -6 -6 -6 -6 -6 -6 -6 -6 -5 -5 -5 -5 -5 -5 -5 -5 -5 -5 -5 -6 -5 -5 -5 -5 -6 -6 -6 -6 -6
-7 -7 -7 -7 -7 -7 -7 -7 -7 -7 -7 -7 -7 -7 -7 -7 -7 -6 -6 -6 -6 -6 -6 -6 -6 -6 -6 -6 -6 -6 -6 -6 -6 -6 -6 -6 -6 -6 -6 -6 -6 -6 -6
-7 -7 -7 -7 -7 -7 -7 -7 -7 -7 -7 -7 -7 -7 -7 -7 -7 -7 -7 -7 -7 -7 -7 -7 -6 -6 -6 -6 -6 -6 -6 -7 -7 -7 -7 -7 -7 -7 -7 -7 -7 -7 -7
-8 -8 -8 -8 -8 -8 -8 -8 -8 -8 -8 -8 -8 -8 -8 -7 -7 -7 -7 -7 -7 -7 -7 -7 -7 -7 -7 -7 -7 -7 -7 -7 -7 -7 -7 -7 -7 -7 -7 -8 -8 -8 -8
-9 -9 -9 -9 -9 -9 -9 -9 -9 -8 -9 -9 -8 -8 -8 -8 -8 -8 -8 -8 -8 -8 -8 -8 -8 -8 -8 -8 -8 -8 -8 -8 -8 -8 -8 -8 -8 -8 -8 -8 -8 -8 -8
-9 -9 -9 -9 -9 -9 -9 -9 -9 -9 -9 -9 -9 -9 -9 -9 -9 -9 -9 -9 -9 -9 -9 -9 -9 -9 -9 -9 -8 -8 -8 -8 -8 -8 -8 -8 -8 -9 -9 -9 -9 -9 -9
-10 -10 -10 -10 -10 -10 -10 -10 -10 -10 -10 -10 -10 -9 -9 -9 -9 -9 -9 -9 -9 -9 -9 -9 -9 -9 -9 -9 -9 -9 -9 -9 -9 -9 -9 -9 -9 -9 -9 -9 -10 -10 -10
-10 -11 -11 -11 -11 -11 -11 -11 -11 -11 -11 -10 -10 -10 -10 -10 -10 -10 -10 -10 -10 -10 -10 -10 -10 -10 -10 -10 -10 -10 -10 -9 -10 -10 -10 -10 -10 -10 -10 -10 -10 -10 -10
-11 -11 -11 -11 -11 -11 -11 -11 -11 -11 -11 -11 -11 -11 -11 -11 -11 -11 -11 -10 -10 -10 -10 -10 -10 -10 -10 -10 -10 -10 -10 -10 -10 -10 -10 -10 -10 -10 -11 -11 -11 -11 -11
-12 -12 -12 -12 -12 -12 -12 -12 -12 -12 -12 -12 -11 -11 -11 -11 -11 -11 -11 -11 -11 -11 -11 -11 -11 -11 -11 -11 -11 -11 -11 -11 -10 -10 -10 -10 -11 -11 -11 -11 -11 -11 -11
-13 -13 -13 -13 -13 -13 -13 -13 -13 -13 -13 -12 -12 -12 -12 -12 -12 -12 -12 -12 -11 -11 -11 -12 -12 -12 -12 -11 -11 -11 -11 -11 -11 -11 -11 -11 -11 -11 -11 -12 -12 -12 -12
-13 -13 -13 -13 -13 -13 -13 -13 -13 -13 -13 -13 -13 -13 -12 -12 -12 -12 -12 -12 -12 -12 -12 -12 -12 -12 -12 -12 -12 -12 -12 -12 -11 -11 -11 -11 -12 -12 -12 -12 -12 -12 -12
-14 -14 -14 -14 -14 -14 -14 -14 -14 -14 -14 -14 -14 -13 -13 -13 -13 -13 -13 -13 -13 -13 -13 -13 -13 -12 -12 -12 -12 -12 -12 -12 -12 -12 -12 -12 -12 -12 -12 -13 -13 -13 -13
-14 -15 -15 -15 -15 -14 -14 -14 -14 -14 -14 -14 -14 -14 -14 -14 -14 -14 -13 -13 -13 -13 -13 -13 -13 -13 -13 -13 -12 -12 -12 -12 -12 -12 -13 -13 -13 -13 -13 -13 -13 -13 -13
Wind_Speed
2 2 3 3 3 2 2 3 3 2 3 3 3 4 5 5 5 5 5 5 6 6 5 6 6 5 4 4 4 3 3 3 4 3 1 2 3 3 4 6 7 7 7
2 2 2 2 2 2 2 2 2 2 2 3 3 3 4 5 5 6 6 6 6 7 7 7 6 5 6 5 4 5 4 4 4 4 2 2 3 4 4 4 5 6 7
2 2 2 2 2 2 2 2 2 2 3 3 3 4 4 5 6 6 6 7 6 7 7 7 7 7 7 5 6 6 5 4 4 4 3 3 2 3 3 3 3 4 6
2 2 2 2 2 2 2 2 2 2 3 4 3 3 4 4 5 5 5 6 6 6 6 7 7 8 8 7 7 7 5 5 4 4 4 3 3 3 3 3 3 3 3
3 3 3 2 2 2 2 2 2 2 2 2 3 3 3 4 5 5 5 5 5 6 6 6 7 8 9 8 7 7 6 5 5 5 5 4 4 3 4 3 4 3 3
3 3 3 2 2 2 2 2 2 2 2 2 3 3 4 4 6 7 6 6 6 6 6 6 6 7 8 10 10 11 10 9 8 7 6 6 6 5 4 4 3 3 3
3 3 3 3 3 3 2 2 3 3 2 3 3 3 4 5 6 7 7 5 5 6 6 6 5 6 7 6 7 8 9 11 11 9 8 8 7 7 6 5 5 5 5
3 3 3 3 3 2 2 3 2 2 3 3 4 3 3 4 6 7 7 4 4 5 6 6 6 6 6 6 5 5 6 6 8 7 7 7 6 7 7 7 6 4 3
3 3 3 3 3 3 3 3 2 2 2 3 3 3 3 4 6 6 5 3 3 4 5 5 6 6 8 9 6 6 5 5 6 8 8 8 9 9 8 4 4 4 4
3 3 3 3 3 4 4 3 2 2 3 3 3 3 4 4 6 6 5 3 3 3 3 4 7 8 9 9 7 6 7 5 4 4 4 5 6 7 9 7 6 5 4
2 2 3 3 3 4 3 2 2 2 2 3 3 3 3 4 5 6 5 3 4 3 3 3 4 8 9 9 8 6 8 6 5 5 4 4 4 4 5 6 6 5 5
1 2 2 2 2 2 2 2 2 2 2 3 3 3 3 3 4 5 6 5 4 3 3 3 4 7 8 8 7 7 8 6 4 4 4 4 4 4 4 5 5 6 5
1 1 1 2 2 2 3 3 3 3 2 3 3 3 3 2 3 5 5 5 5 3 3 4 5 6 6 5 6 8 6 4 4 4 4 4 4 3 3 3 3 3 2
1 1 1 2 2 2 2 2 2 2 2 2 2 3 3 2 2 2 2 3 4 3 2 4 5 6 5 5 5 4 3 4 4 4 4 3 3 3 3 3 3 2 2
1 1 1 1 2 1 1 2 2 3 4 4 3 3 3 3 4 4 3 3 2 3 2 2 2 3 3 3 2 2 3 3 3 3 3 3 3 3 3 2 2 3 3
1 2 1 1 1 1 1 1 2 3 4 5 5 5 5 5 6 6 6 6 6 5 3 2 3 3 3 3 3 3 2 3 3 3 3 4 3 3 3 2 3 3 4
2 2 1 1 1 1 1 1 1 2 3 4 5 5 6 6 6 7 7 6 6 5 3 3 3 3 3 3 3 3 3 3 3 3 3 4 3 3 3 3 3 4 4
2 2 2 1 1 1 1 2 2 2 2 2 4 5 5 6 6 6 6 4 3 3 2 3 3 3 3 3 3 3 3 3 3 3 3 3 4 4 4 4 4 4 4
2 2 1 1 1 1 1 1 2 2 2 2 2 3 4 4 4 4 4 2 3 3 3 3 3 3 3 3 3 3 3 3 3 3 4 4 4 4 4 4 4 6 5
2 3 2 1 1 1 1 1 2 2 2 2 2 2 2 1 1 2 2 2 3 3 3 3 2 2 3 3 3 3 3 3 4 4 4 4 4 4 5 5 5 4 4
2 2 3 2 1 1 1 1 2 2 2 2 2 3 4 2 2 2 2 2 3 3 3 3 3 3 3 3 3 3 4 4 4 4 4 4 4 4 4 4 4 4 4
2 2 1 1 1 1 2 1 1 2 2 2 2 3 4 2 1 2 2 2 2 2 2 3 3 3 3 3 4 4 4 5 5 4 4 4 4 4 4 4 4 4 4
2 2 1 1 1 2 2 1 1 2 2 2 2 2 2 2 2 2 2 2 2 2 2 2 3 3 3 4 4 4 5 5 5 6 5 5 5 5 5 5 5 5 5
1 2 2 2 2 1 2 2 2 2 2 2 2 2 2 2 2 3 3 2 2 2 2 3 3 4 5 5 5 5 6 7 7 7 7 6 6 5 5 5 6 6 6
1 1 2 2 2 2 2 2 2 2 2 3 3 3 2 2 2 3 3 2 2 2 3 4 4 4 5 6 6 7 8 9 9 8 7 6 7 7 7 7 6 6 6
1 2 2 2 2 2 2 2 2 2 2 3 3 3 2 2 3 3 3 3 3 3 3 4 4 5 6 6 7 8 9 10 10 10 8 6 7 7 7 7 7 7 7
Wind_Direction
181 178 182 176 176 185 203 208 201 204 198 196 196 200 193 192 194 195 203 202 203 206 210 203 207 204 203 203 202 208 218 209 230 255 242 206 198 212 224 221 225 225 230
179 180 190 178 173 189 206 217 200 199 204 202 196 201 205 197 197 199 204 207 207 207 209 204 208 205 204 204 202 209 218 214 213 229 232 213 213 212 210 218 226 225 230
179 188 193 194 189 199 212 218 215 206 200 207 201 205 214 208 205 207 206 207 211 212 209 207 209 203 211 210 207 211 217 221 212 214 223 216 219 204 204 226 236 231 236
183 191 204 212 209 210 218 217 215 202 205 208 209 210 219 219 213 211 210 208 210 216 214 212 211 210 212 208 210 211 211 212 211 210 212 213 213 209 194 210 237 234 246
188 203 221 224 220 208 210 211 213 216 223 215 206 211 218 224 216 207 208 210 215 217 216 216 215 217 220 216 215 207 201 206 207 212 213 209 207 199 209 208 224 234 248
202 213 220 222 221 214 206 199 202 212 216 216 212 211 217 236 233 225 219 208 215 217 217 220 221 221 225 228 227 221 212 208 208 212 216 212 213 209 203 207 211 221 250
215 215 213 213 223 223 214 208 210 210 210 222 229 224 225 233 240 231 231 222 216 220 218 216 224 222 219 215 223 230 233 230 221 211 213 215 209 204 199 209 217 229 241
221 224 219 214 221 221 214 220 228 225 223 228 233 234 241 246 246 240 231 223 221 226 218 214 216 216 212 210 210 217 226 230 230 221 216 217 210 203 199 207 215 230 258
220 227 226 215 213 212 218 227 238 235 239 240 236 231 238 250 250 245 232 220 228 233 226 217 215 213 219 219 211 215 227 237 241 235 231 228 226 219 208 196 204 217 246
234 234 229 219 212 215 219 229 238 234 234 238 245 240 240 246 250 247 230 212 228 238 231 225 226 222 223 221 211 209 221 226 221 230 230 231 224 215 214 209 207 215 233
255 240 231 222 216 219 220 224 229 229 226 235 241 245 240 242 246 243 232 218 223 234 236 234 233 232 230 229 227 218 226 227 215 217 220 216 211 208 212 214 212 216 221
269 242 235 223 215 213 203 219 220 216 220 231 232 245 243 240 242 244 240 245 243 230 235 237 235 236 238 238 239 231 232 229 212 212 217 220 216 215 208 212 214 222 231
250 240 227 213 208 208 201 206 208 206 216 231 226 237 249 241 242 253 251 256 259 258 247 251 251 247 247 242 240 234 228 217 205 211 221 225 216 203 192 196 202 211 248
251 242 227 205 200 208 209 208 203 207 218 230 235 240 252 250 243 243 239 251 260 268 262 252 254 252 248 240 240 229 213 204 205 214 217 218 195 191 202 201 212 203 232
280 258 248 205 188 193 213 220 218 221 220 224 228 232 236 239 242 250 251 239 233 242 247 247 243 241 235 223 223 220 206 205 218 204 203 207 209 209 216 202 208 210 224
280 277 256 208 199 199 204 263 274 256 253 253 251 250 255 255 253 253 258 260 258 252 253 241 239 230 226 222 220 221 218 213 213 208 202 202 205 206 208 209 214 218 228
279 279 281 245 218 224 222 215 263 306 293 273 261 258 259 254 247 250 253 259 255 246 248 241 237 225 223 221 221 222 227 223 213 206 202 198 197 201 204 211 221 226 234
303 293 296 271 236 230 233 240 241 247 273 287 283 273 268 261 253 252 251 257 248 246 238 239 238 228 224 224 223 225 224 213 207 204 200 197 195 200 208 215 219 225 234
310 306 302 294 279 266 262 259 255 254 258 269 285 281 275 270 264 261 253 234 229 237 236 234 233 228 225 223 224 223 218 213 208 202 205 202 200 201 213 221 225 230 237
309 306 314 307 293 294 282 267 267 264 264 264 263 263 261 258 250 255 256 233 228 236 236 234 235 232 223 218 218 221 224 219 209 207 210 208 205 207 214 219 223 227 232
310 303 309 318 315 300 289 276 268 263 256 265 274 272 266 236 226 235 241 241 231 228 229 229 229 228 226 223 221 222 227 227 215 209 206 205 204 210 218 222 223 224 230
316 311 311 312 314 306 301 291 281 275 268 271 283 290 292 299 263 253 255 255 254 249 237 234 235 236 227 221 219 222 232 228 215 209 208 208 208 210 211 216 219 221 221
333 326 324 323 321 297 309 319 307 291 289 292 291 291 289 284 278 274 274 272 269 272 261 240 238 244 249 244 231 222 230 231 216 203 204 207 209 210 208 211 214 217 222
332 324 314 309 308 306 302 302 299 295 294 292 292 289 283 276 276 280 279 275 277 278 273 259 246 240 244 250 244 237 236 233 221 210 201 202 208 210 208 212 216 221 225
321 313 308 303 296 293 294 295 294 296 297 294 291 292 291 289 287 287 284 282 275 272 270 268 258 247 243 245 248 247 245 240 233 221 207 201 205 206 208 211 215 220 225
312 310 306 306 305 301 295 292 292 292 293 293 293 289 285 283 283 284 286 285 280 276 275 273 260 251 251 253 252 250 247 245 240 236 226 210 206 207 206 211 212 218 223
Height
1467 1468 1470 1471 1473 1474 1475 1476 1477 1478 1480 1482 1483 1486 1488 1490 1492 1494 1496 1499 1501 1503 1505 1507 1509 1511 1513 1515 1516 1518 1520 1522 1522 1523 1525 1526 1528 1529 1530 1531 1531 1532 1532
1463 1464 1465 1466 1468 1469 1470 1471 1472 1473 1475 1477 1479 1480 1482 1484 1486 1488 1490 1493 1495 1497 1499 1501 1503 1505 1507 1509 1511 1512 1514 1516 1517 1518 1519 1521 1522 1523 1524 1525 1526 1526 1527
1459 1460 1461 1462 1463 1465 1465 1466 1467 1468 1470 1472 1474 1475 1477 1479 1480 1482 1484 1486 1489 1491 1493 1495 1497 1499 1501 1503 1505 1506 1508 1510 1512 1513 1513 1515 1516 1518 1519 1520 1520 1521 1521
1455 1456 1457 1458 1459 1460 1461 1462 1462 1463 1465 1467 1468 1470 1471 1473 1475 1477 1479 1480 1483 1485 1487 1489 1491 1493 1495 1497 1498 1500 1502 1504 1506 1507 1508 1509 1511 1512 1513 1513 1514 1515 1515
1451 1452 1453 1454 1455 1455 1456 1457 1458 1460 1461 1462 1463 1465 1467 1468 1470 1471 1473 1475 1477 1479 1481 1483 1485 1487 1489 1491 1493 1494 1496 1498 1499 1501 1502 1503 1504 1506 1507 1508 1508 1509 1509
1447 1448 1449 1450 1450 1450 1451 1452 1454 1455 1456 1457 1458 1460 1461 1462 1464 1466 1468 1469 1471 1473 1475 1477 1479 1481 1483 1484 1486 1488 1490 1491 1492 1494 1495 1496 1497 1500 1501 1502 1502 1503 1503
1443 1443 1444 1445 1446 1446 1447 1448 1449 1450 1451 1452 1454 1455 1455 1457 1459 1461 1463 1464 1465 1467 1469 1470 1472 1474 1477 1478 1480 1482 1484 1485 1487 1488 1489 1489 1492 1494 1495 1496 1496 1497 1497
1439 1440 1440 1441 1442 1442 1443 1443 1444 1445 1446 1447 1448 1450 1451 1452 1454 1456 1458 1459 1460 1462 1463 1465 1466 1468 1470 1472 1474 1476 1477 1479 1480 1482 1483 1484 1486 1488 1489 1490 1490 1491 1492
1435 1436 1436 1437 1437 1438 1438 1439 1440 1441 1441 1442 1444 1445 1447 1448 1449 1451 1452 1453 1455 1456 1458 1459 1461 1463 1465 1467 1468 1470 1471 1472 1474 1476 1477 1479 1480 1482 1483 1484 1485 1485 1484
1431 1432 1432 1433 1433 1433 1434 1435 1436 1437 1438 1439 1440 1441 1442 1443 1445 1446 1448 1449 1450 1451 1453 1454 1456 1458 1459 1461 1462 1463 1464 1466 1468 1469 1471 1472 1474 1475 1477 1478 1479 1479 1479
1428 1428 1428 1428 1429 1429 1430 1431 1432 1433 1434 1435 1436 1437 1438 1440 1440 1442 1443 1444 1445 1446 1447 1449 1450 1452 1454 1455 1457 1458 1459 1461 1462 1463 1465 1466 1467 1469 1470 1472 1473 1474 1474
1424 1424 1424 1424 1424 1425 1426 1427 1428 1429 1430 1431 1432 1433 1434 1435 1436 1437 1438 1440 1441 1442 1442 1444 1445 1447 1448 1450 1451 1452 1454 1455 1456 1457 1458 1459 1461 1462 1464 1466 1467 1468 1469
1420 1419 1420 1420 1421 1421 1422 1422 1423 1425 1425 1426 1427 1428 1429 1431 1432 1433 1434 1435 1436 1437 1438 1439 1441 1442 1443 1444 1446 1447 1449 1450 1451 1452 1452 1453 1455 1457 1458 1460 1461 1462 1462
1416 1416 1416 1416 1417 1418 1418 1419 1420 1421 1421 1422 1423 1424 1425 1426 1427 1428 1429 1430 1432 1433 1433 1434 1436 1437 1438 1439 1440 1441 1443 1444 1445 1446 1447 1449 1450 1452 1453 1454 1455 1455 1456
1413 1413 1412 1413 1413 1414 1415 1416 1416 1417 1418 1418 1419 1420 1421 1421 1423 1424 1425 1426 1427 1428 1429 1429 1430 1432 1432 1433 1435 1436 1437 1439 1440 1442 1443 1444 1445 1446 1447 1448 1449 1450 1450
1410 1410 1409 1410 1410 1411 1411 1412 1412 1414 1414 1415 1416 1417 1417 1419 1419 1420 1421 1422 1423 1424 1425 1424 1425 1426 1427 1428 1429 1430 1432 1433 1435 1436 1438 1439 1440 1441 1442 1443 1444 1444 1444
1408 1407 1407 1407 1407 1408 1408 1408 1408 1409 1410 1411 1412 1413 1414 1414 1415 1416 1417 1418 1419 1419 1420 1419 1420 1421 1422 1423 1424 1425 1427 1428 1430 1431 1432 1434 1435 1436 1437 1437 1438 1439 1439
1406 1405 1405 1405 1405 1405 1405 1405 1405 1405 1405 1406 1408 1409 1409 1410 1411 1412 1413 1413 1413 1414 1414 1415 1415 1416 1417 1418 1419 1420 1422 1423 1424 1426 1427 1428 1429 1430 1431 1432 1433 1433 1434
1404 1403 1402 1402 1402 1402 1402 1402 1402 1402 1402 1402 1403 1404 1405 1406 1407 1408 1408 1408 1408 1409 1409 1410 1411 1412 1412 1413 1415 1416 1417 1418 1419 1420 1421 1423 1424 1425 1426 1427 1427 1428 1429
1401 1401 1400 1400 1400 1400 1400 1400 1399 1399 1399 1399 1399 1400 1400 1401 1402 1402 1403 1404 1404 1404 1405 1405 1406 1407 1408 1409 1410 1410 1411 1412 1413 1414 1415 1417 1418 1419 1420 1421 1422 1422 1423
1399 1399 1398 1398 1397 1397 1397 1397 1397 1396 1396 1396 1396 1396 1397 1397 1397 1398 1399 1399 1400 1400 1400 1401 1401 1402 1403 1403 1404 1405 1405 1406 1407 1408 1409 1411 1412 1413 1414 1415 1416 1417 1417
1397 1397 1396 1395 1395 1395 1395 1394 1394 1394 1393 1393 1392 1393 1394 1394 1394 1394 1394 1395 1395 1396 1396 1396 1396 1397 1397 1398 1399 1399 1400 1400 1401 1402 1403 1405 1406 1407 1408 1409 1410 1411 1411
1395 1395 1394 1394 1393 1393 1393 1392 1392 1391 1391 1390 1390 1390 1390 1390 1390 1390 1390 1390 1390 1391 1391 1391 1391 1391 1392 1393 1393 1394 1394 1395 1396 1397 1398 1399 1400 1401 1402 1403 1404 1405 1405
1393 1392 1392 1391 1391 1391 1390 1390 1389 1389 1388 1387 1387 1387 1386 1386 1386 1386 1386 1386 1386 1386 1386 1386 1386 1386 1386 1387 1387 1388 1389 1389 1390 1391 1392 1393 1394 1395 1396 1397 1398 1399 1400
1391 1390 1390 1389 1389 1389 1388 1387 1387 1386 1385 1385 1384 1384 1383 1383 1382 1382 1382 1382 1381 1381 1381 1381 1381 1381 1381 1381 1382 1382 1383 1383 1384 1385 1386 1387 1387 1389 1390 1391 1392 1393 1394
1389 1388 1388 1387 1387 1386 1386 1385 1384 1384 1383 1382 1382 1381 1380 1380 1379 1378 1378 1378 1377 1377 1377 1376 1376 1376 1376 1376 1376 1377 1377 1378 1379 1379 1380 1381 1382 1383 1384 1385 1386 1387 1388